CW8095 Weather Reports


Display with metric or nautical units.
time (UTC)temp
F
wind
direction
speed
MPH
gust
MPH
rain 1hr
in
rain 24hr
in
rain mn
in
humidity
%
barometer
mb
20260906183525 98 135 2.0 6.0 0.00 0.00 0.00 30 1013.2
20260906182519 98 124 2.0 6.0 0.00 0.00 0.00 30 1013.3
20260906181549 98 74 4.0 8.0 0.00 0.00 0.00 32 1013.5
20260906180524 98 113 3.0 4.0 0.00 0.00 0.00 32 1013.6
20260906180025 96 133 2.0 7.0 0.00 0.00 0.00 33 1013.7
20260906175020 97 132 3.0 9.0 0.00 0.00 0.00 33 1013.9
20260906174050 96 80 3.0 6.0 0.00 0.00 0.00 33 1014.0
20260906173024 94 104 3.0 7.0 0.00 0.00 0.00 35 1014.2
20260906172018 95 68 4.0 9.0 0.00 0.00 0.00 35 1014.4
20260906171028 95 73 4.0 11.0 0.00 0.00 0.00 36 1014.7
20260906170023 95 118 3.0 10.0 0.00 0.00 0.00 36 1014.7
20260906165017 96 172 1.0 2.0 0.00 0.00 0.00 36 1014.8
20260906164047 96 95 2.0 4.0 0.00 0.00 0.00 37 1014.8
20260906163022 94 135 3.0 7.0 0.00 0.00 0.00 37 1014.8
20260906162017 94 114 2.0 7.0 0.00 0.00 0.00 40 1014.8
20260906161028 93 65 4.0 8.0 0.00 0.00 0.00 40 1014.8
20260906160022 93 97 2.0 4.0 0.00 0.00 0.00 41 1014.9
20260906155524 92 80 1.0 4.0 0.00 0.00 0.00 42 1014.8
20260906154520 91 59 3.0 7.0 0.00 0.00 0.00 43 1014.8
20260906153541 89 67 1.0 3.0 0.00 0.00 0.00 47 1014.9
20260906152544 88 144 3.0 6.0 0.00 0.00 0.00 48 1014.8
20260906151519 87 130 1.0 4.0 0.00 0.00 0.00 49 1014.6
20260906150529 86 127 2.0 3.0 0.00 0.00 0.00 51 1014.7
20260906145524 85 136 2.0 3.0 0.00 0.00 0.00 51 1014.8
20260906144519 84 114 1.0 4.0 0.00 0.00 0.00 53 1014.7
20260906143529 83 124 2.0 4.0 0.00 0.00 0.00 55 1014.6
20260906142523 82 120 2.0 3.0 0.00 0.00 0.00 57 1014.5
20260906141518 80 108 2.0 4.0 0.00 0.00 0.00 59 1014.6
20260906140528 79 113 1.0 4.0 0.00 0.00 0.00 63 1014.5
20260906135522 77 109 2.0 4.0 0.00 0.00 0.00 65 1014.5
20260906134517 75 104 2.0 4.0 0.00 0.00 0.00 68 1014.4
20260906133527 74 108 1.0 2.0 0.00 0.00 0.00 70 1014.4
20260906132541 73 138 1.0 4.0 0.00 0.00 0.00 72 1014.3
20260906131536 72 106 1.0 2.0 0.00 0.00 0.00 74 1014.4
20260906130525 72 0.0 0.0 0.00 0.00 0.00 73 1014.3
20260906125520 72 78 0.0 2.0 0.00 0.00 0.00 73 1014.1
20260906124530 72 127 0.0 2.0 0.00 0.00 0.00 74 1014.0
20260906123545 71 128 1.0 2.0 0.00 0.00 0.00 74 1014.0
20260906122519 71 119 1.0 3.0 0.00 0.00 0.00 74 1013.9
20260906121529 71 121 1.0 2.0 0.00 0.00 0.00 74 1013.9
20260906120524 71 120 1.0 3.0 0.00 0.00 0.00 74 1013.8
20260906115517 71 134 1.0 2.0 0.00 0.00 0.00 73 1013.8
20260906114527 72 139 1.0 3.0 0.00 0.00 0.00 73 1013.6
20260906113522 72 127 2.0 3.0 0.00 0.00 0.00 74 1013.6
20260906112517 72 137 1.0 2.0 0.00 0.00 0.00 73 1013.4
20260906111527 72 138 0.0 1.0 0.00 0.00 0.00 73 1013.4
20260906110521 72 130 0.0 2.0 0.00 0.00 0.00 73 1013.3
20260906105516 72 123 0.0 1.0 0.00 0.00 0.00 73 1013.2
20260906104526 71 115 1.0 2.0 0.00 0.00 0.00 73 1013.5
20260906103540 72 0.0 0.0 0.00 0.00 0.00 73 1013.2
20260906102530 72 155 0.0 1.0 0.00 0.00 0.00 73 1013.1
20260906101525 72 0.0 0.0 0.00 0.00 0.00 72 1013.1
20260906100519 73 0.0 0.0 0.00 0.00 0.00 70 1012.9
20260906095530 73 0.0 0.0 0.00 0.00 0.00 69 1012.9
20260906094525 73 155 0.0 2.0 0.00 0.00 0.00 69 1012.7
20260906093519 73 155 0.0 2.0 0.00 0.00 0.00 69 1012.5
20260906092529 73 155 0.0 1.0 0.00 0.00 0.00 69 1012.4
20260906091525 73 155 0.0 2.0 0.00 0.00 0.00 69 1012.6
20260906090520 73 155 1.0 2.0 0.00 0.00 0.00 68 1012.6
20260906085517 74 155 1.0 3.0 0.00 0.00 0.00 68 1012.3
20260906084521 74 153 0.0 2.0 0.00 0.00 0.00 68 1012.5
20260906083530 74 163 0.0 3.0 0.00 0.00 0.00 68 1012.4
20260906082525 74 159 1.0 4.0 0.00 0.00 0.00 68 1012.5
20260906081520 74 168 1.0 3.0 0.00 0.00 0.00 67 1012.6
20260906080529 74 144 1.0 3.0 0.00 0.00 0.00 67 1012.7
20260906075525 75 154 1.0 2.0 0.00 0.00 0.00 67 1012.6
20260906074520 75 158 1.0 4.0 0.00 0.00 0.00 66 1012.7
20260906073516 75 158 1.0 3.0 0.00 0.00 0.00 66 1012.6
20260906072525 75 159 2.0 6.0 0.00 0.00 0.00 66 1012.7
20260906071519 75 172 2.0 7.0 0.00 0.00 0.00 66 1012.7
20260906070526 76 151 2.0 6.0 0.00 0.00 0.00 66 1012.9
20260906065524 76 162 3.0 6.0 0.00 0.00 0.00 65 1012.9
20260906064530 76 156 3.0 7.0 0.00 0.00 0.00 65 1013.0
20260906063529 76 155 2.0 6.0 0.00 0.00 0.00 64 1013.1
20260906062531 77 161 2.0 4.0 0.00 0.00 0.00 64 1013.2
20260906061536 77 164 2.0 4.0 0.00 0.00 0.00 64 1013.2
20260906060527 77 161 2.0 6.0 0.00 0.00 0.00 63 1013.2
20260906055516 77 156 2.0 4.0 0.00 0.00 0.00 63 1013.1
20260906054524 78 165 1.0 3.0 0.00 0.00 0.00 62 1013.1
20260906053543 78 158 1.0 4.0 0.00 0.00 0.00 62 1013.0
20260906052520 78 158 2.0 4.0 0.00 0.00 0.00 63 1012.8
20260906051551 78 160 2.0 6.0 0.00 0.00 0.00 62 1012.8
20260906050528 78 165 2.0 4.0 0.00 0.00 0.00 62 1013.0
20260906045554 78 167 2.0 6.0 0.00 0.00 0.00 62 1013.0
20260906044523 79 162 2.0 4.0 0.00 0.00 0.00 61 1012.9
20260906043558 79 154 2.0 7.0 0.00 0.00 0.00 60 1012.9
20260906042528 79 143 1.0 4.0 0.00 0.00 0.00 60 1013.0
20260906041536 79 153 2.0 6.0 0.00 0.00 0.00 59 1012.9
20260906040528 80 144 1.0 4.0 0.00 0.00 0.00 58 1012.8
20260906035525 80 160 1.0 6.0 0.00 0.00 0.00 58 1012.7
20260906034540 80 154 1.0 3.0 0.00 0.00 0.00 57 1012.9
20260906033552 80 156 1.0 4.0 0.00 0.00 0.00 56 1012.9
20260906032526 80 149 2.0 4.0 0.00 0.00 0.00 56 1012.9
20260906031522 81 135 1.0 4.0 0.00 0.00 0.00 55 1012.9
20260906030528 81 138 2.0 6.0 0.00 0.00 0.00 55 1012.9
20260906025524 81 146 2.0 6.0 0.00 0.00 0.00 54 1012.8
20260906024518 81 118 3.0 8.0 0.00 0.00 0.00 54 1012.8
20260906023541 81 137 3.0 8.0 0.00 0.00 0.00 53 1012.7
20260906022524 82 132 4.0 7.0 0.00 0.00 0.00 53 1012.4
20260906021518 82 132 4.0 11.0 0.00 0.00 0.00 52 1012.3
20260906020548 82 131 4.0 8.0 0.00 0.00 0.00 52 1012.1
20260906015522 82 133 3.0 8.0 0.00 0.00 0.00 51 1012.0
20260906014537 82 136 5.0 11.0 0.00 0.00 0.00 51 1011.8
20260906013526 83 135 6.0 8.0 0.00 0.00 0.00 51 1011.7
20260906012527 84 118 6.0 16.0 0.00 0.00 0.00 50 1011.5
20260906011521 84 137 6.0 11.0 0.00 0.00 0.00 48 1011.3
20260906010516 86 133 6.0 14.0 0.00 0.00 0.00 46 1011.4
20260906005527 86 127 6.0 16.0 0.00 0.00 0.00 44 1011.3
20260906004522 87 119 8.0 14.0 0.00 0.00 0.00 43 1011.4
20260906003537 88 132 6.0 11.0 0.00 0.00 0.00 42 1011.2
20260906002527 91 122 9.0 16.0 0.00 0.00 0.00 36 1011.0
20260906001543 92 123 4.0 7.0 0.00 0.00 0.00 33 1010.9
20260906000518 92 113 5.0 9.0 0.00 0.00 0.00 32 1010.8
20260905235528 93 116 6.0 10.0 0.00 0.00 0.00 31 1010.8
20260905234523 95 101 6.0 10.0 0.00 0.00 0.00 30 1010.6
20260905233518 95 117 3.0 7.0 0.00 0.00 0.00 29 1010.6
20260905232548 96 129 1.0 3.0 0.00 0.00 0.00 28 1010.5
20260905231524 97 73 4.0 10.0 0.00 0.00 0.00 27 1010.6
20260905230519 98 119 2.0 6.0 0.00 0.00 0.00 26 1010.5
20260905225549 98 326 1.0 3.0 0.00 0.00 0.00 27 1010.4
20260905224524 98 135 2.0 4.0 0.00 0.00 0.00 26 1010.6
20260905223519 98 85 3.0 9.0 0.00 0.00 0.00 27 1010.5
20260905222529 98 155 1.0 6.0 0.00 0.00 0.00 26 1010.5
20260905221524 99 98 3.0 7.0 0.00 0.00 0.00 26 1010.4
20260905220539 98 100 2.0 7.0 0.00 0.00 0.00 28 1010.6
20260905215530 97 154 1.0 2.0 0.00 0.00 0.00 28 1010.8
20260905214525 99 150 1.0 4.0 0.00 0.00 0.00 27 1010.8
20260905213520 99 144 2.0 6.0 0.00 0.00 0.00 27 1010.9
20260905212530 99 109 2.0 6.0 0.00 0.00 0.00 27 1011.1
20260905211525 99 112 2.0 6.0 0.00 0.00 0.00 28 1011.3
20260905210520 98 178 2.0 7.0 0.00 0.00 0.00 28 1011.3
20260905205515 98 311 2.0 7.0 0.00 0.00 0.00 29 1011.4
20260905204606 97 265 1.0 3.0 0.00 0.00 0.00 30 1011.6
20260905203552 96 293 2.0 4.0 0.00 0.00 0.00 31 1011.7
20260905202515 97 297 2.0 4.0 0.00 0.00 0.00 29 1011.9
20260905201526 95 60 2.0 3.0 0.00 0.00 0.00 32 1012.0
20260905201049 94 144 1.0 2.0 0.00 0.00 0.00 32 1012.1
20260905200024 95 114 2.0 4.0 0.00 0.00 0.00 31 1012.3
20260905195020 95 138 1.0 3.0 0.00 0.00 0.00 31 1012.5
20260905194016 98 175 2.0 7.0 0.00 0.00 0.00 30 1012.6
20260905193026 99 160 2.0 6.0 0.00 0.00 0.00 28 1012.7
20260905192042 100 141 3.0 8.0 0.00 0.00 0.00 28 1012.8
20260905191017 98 117 2.0 6.0 0.00 0.00 0.00 30 1013.0
20260905190048 97 126 2.0 4.0 0.00 0.00 0.00 31 1013.2
20260905185023 94 247 3.0 4.0 0.00 0.00 0.00 33 1013.4
20260905184019 95 208 1.0 3.0 0.00 0.00 0.00 32 1013.7